Location: Round Knob
(37.2473°N, 88.7376°W)
Time: 14:23:06
(UTC+00:00)

X-37B - Pass Details

Date: 27 September 2021
Orbit: 385 x 389 km, 45.0° (Epoch: 17 October)

Event Time Altitude Azimuth Distance (km) Brightness Sun altitude
Exits shadow 09:30:59 15° 37° (NE) 1,166 3.6 -27.4°
Drops below altitude 10° 09:31:44 10° 46° (NE) 1,413 4.2 -27.3°
Sets 09:34:01 0° 59° (ENE) 2,270 5.7 -26.9°
